FW9002 Weather Reports


time (UTC)temp
C
wind
direction
speed
KPH
gust
KPH
rain 1hr
cm
rain 24hr
cm
rain mn
cm
humidity
%
barometer
mb
20260509031408 27 253 0.0 0.0 0.00 0.00 0.00 16 1009.8
20260509030905 27 245 0.0 0.0 0.00 0.00 0.00 16 1010.0
20260509030404 28 320 0.0 0.0 0.00 0.00 0.00 16 1009.6
20260509025900 28 322 0.0 0.0 0.00 0.00 0.00 16 1009.5
20260509025355 28 325 0.0 0.0 0.00 0.00 0.00 15 1009.6
20260509024851 28 328 0.0 0.0 0.00 0.00 0.00 15 1009.5
20260509024347 29 332 1.6 3.2 0.00 0.00 0.00 15 1009.5
20260509023845 30 314 1.6 1.6 0.00 0.00 0.00 14 1009.3
20260509023342 30 328 1.6 1.6 0.00 0.00 0.00 14 1009.1
20260509022838 30 313 0.0 1.6 0.00 0.00 0.00 14 1009.1
20260509022336 30 294 1.6 1.6 0.00 0.00 0.00 14 1009.1
20260509021832 30 331 1.6 1.6 0.00 0.00 0.00 14 1009.2
20260509021329 31 303 3.2 4.8 0.00 0.00 0.00 13 1009.2
20260509020827 31 306 1.6 1.6 0.00 0.00 0.00 13 1009.1
20260509020325 31 312 4.8 4.8 0.00 0.00 0.00 13 1009.0
20260509015822 31 320 4.8 4.8 0.00 0.00 0.00 13 1009.0
20260509015320 31 105 3.2 3.2 0.00 0.00 0.00 12 1008.9
20260509014817 32 311 8.0 11.3 0.00 0.00 0.00 12 1008.8
20260509014314 32 339 1.6 1.6 0.00 0.00 0.00 12 1008.8
20260509013811 32 312 1.6 3.2 0.00 0.00 0.00 12 1008.6
20260509013307 32 296 6.4 9.7 0.00 0.00 0.00 11 1008.8
20260509012803 32 3 3.2 3.2 0.00 0.00 0.00 12 1008.9
20260509012300 33 314 4.8 9.7 0.00 0.00 0.00 11 1008.6
20260509011757 33 311 3.2 4.8 0.00 0.00 0.00 11 1008.8
20260509011254 33 301 4.8 4.8 0.00 0.00 0.00 11 1008.6
20260509010752 33 311 4.8 4.8 0.00 0.00 0.00 11 1008.8
20260509010248 33 287 8.0 12.9 0.00 0.00 0.00 11 1008.8
20260509005746 33 343 1.6 1.6 0.00 0.00 0.00 12 1008.8
20260509005244 33 311 4.8 4.8 0.00 0.00 0.00 11 1009.0
20260509004743 33 29 1.6 3.2 0.00 0.00 0.00 11 1008.8
20260509004241 33 264 6.4 8.0 0.00 0.00 0.00 10 1009.0
20260509003739 33 295 8.0 9.7 0.00 0.00 0.00 10 1008.8
20260509003236 34 299 8.0 12.9 0.00 0.00 0.00 11 1008.8
20260509002733 34 272 6.4 9.7 0.00 0.00 0.00 11 1008.9
20260509002231 34 307 1.6 1.6 0.00 0.00 0.00 11 1008.8
20260509001729 34 0 1.6 1.6 0.00 0.00 0.00 11 1008.9
20260509001224 35 277 9.7 11.3 0.00 0.00 0.00 10 1008.8
20260509000722 35 322 4.8 4.8 0.00 0.00 0.00 10 1008.9
20260509000219 35 295 8.0 12.9 0.00 0.00 0.00 10 1008.9
20260508235716 35 277 8.0 12.9 0.00 0.00 0.00 10 1008.9
20260508235212 34 303 8.0 11.3 0.00 0.00 0.00 11 1008.8
20260508234710 35 307 8.0 9.7 0.00 0.00 0.00 10 1008.9
20260508234206 35 329 3.2 3.2 0.00 0.00 0.00 11 1009.0
20260508233706 35 336 1.6 3.2 0.00 0.00 0.00 11 1009.1
20260508233203 34 357 3.2 3.2 0.00 0.00 0.00 11 1008.9
20260508232700 34 292 6.4 8.0 0.00 0.00 0.00 11 1009.0
20260508232156 34 342 4.8 4.8 0.00 0.00 0.00 11 1009.1
20260508231655 35 353 9.7 16.1 0.00 0.00 0.00 11 1009.0
20260508231151 35 356 1.6 1.6 0.00 0.00 0.00 11 1009.1
20260508230648 34 298 6.4 9.7 0.00 0.00 0.00 11 1009.1
20260508230144 35 308 9.7 11.3 0.00 0.00 0.00 11 1009.5
20260508225643 35 317 3.2 3.2 0.00 0.00 0.00 11 1009.2
20260508225138 34 319 1.6 3.2 0.00 0.00 0.00 11 1009.5
20260508224636 35 302 9.7 12.9 0.00 0.00 0.00 11 1009.6
20260508224134 35 320 6.4 8.0 0.00 0.00 0.00 11 1009.5
20260508223631 34 328 4.8 8.0 0.00 0.00 0.00 12 1009.7
20260508223128 35 264 8.0 9.7 0.00 0.00 0.00 11 1009.5
20260508222626 35 237 8.0 14.5 0.00 0.00 0.00 12 1009.3
20260508222123 35 34 1.6 1.6 0.00 0.00 0.00 12 1009.7
20260508221619 35 352 12.9 17.7 0.00 0.00 0.00 12 1009.9
20260508221115 34 294 3.2 3.2 0.00 0.00 0.00 12 1009.7
20260508220611 35 303 8.0 11.3 0.00 0.00 0.00 12 1009.7
20260508220108 34 318 8.0 12.9 0.00 0.00 0.00 12 1009.9
20260508215605 34 348 4.8 8.0 0.00 0.00 0.00 12 1010.1
20260508215101 34 308 4.8 8.0 0.00 0.00 0.00 13 1010.0
20260508214559 35 322 6.4 16.1 0.00 0.00 0.00 12 1010.2
20260508214055 34 4 3.2 3.2 0.00 0.00 0.00 13 1010.2
20260508213552 35 297 8.0 9.7 0.00 0.00 0.00 12 1010.3
20260508213048 34 280 8.0 11.3 0.00 0.00 0.00 13 1010.5
20260508212545 33 57 4.8 4.8 0.00 0.00 0.00 12 1010.4
20260508212041 34 304 11.3 14.5 0.00 0.00 0.00 12 1010.4
20260508211537 33 207 6.4 8.0 0.00 0.00 0.00 12 1010.5
20260508211033 33 298 6.4 11.3 0.00 0.00 0.00 13 1010.6
20260508210530 33 295 6.4 9.7 0.00 0.00 0.00 13 1011.0
20260508210028 33 282 6.4 14.5 0.00 0.00 0.00 13 1010.6
20260508205524 33 321 9.7 11.3 0.00 0.00 0.00 13 1010.9
20260508205020 33 292 6.4 9.7 0.00 0.00 0.00 13 1010.9
20260508204518 33 295 9.7 16.1 0.00 0.00 0.00 13 1010.9
20260508204014 33 306 9.7 12.9 0.00 0.00 0.00 13 1011.0
20260508203510 33 314 4.8 4.8 0.00 0.00 0.00 14 1011.2
20260508203006 33 274 9.7 14.5 0.00 0.00 0.00 13 1011.3
20260508202503 33 303 8.0 14.5 0.00 0.00 0.00 13 1011.1
20260508202000 33 302 8.0 14.5 0.00 0.00 0.00 13 1011.3
20260508201456 33 283 3.2 3.2 0.00 0.00 0.00 14 1011.4
20260508200953 32 275 8.0 11.3 0.00 0.00 0.00 14 1011.5
20260508200450 32 281 6.4 8.0 0.00 0.00 0.00 13 1011.6
20260508195944 33 318 9.7 12.9 0.00 0.00 0.00 14 1011.5
20260508195442 32 255 4.8 4.8 0.00 0.00 0.00 14 1011.8
20260508194938 32 288 9.7 11.3 0.00 0.00 0.00 15 1011.7
20260508194436 33 251 11.3 14.5 0.00 0.00 0.00 14 1011.7
20260508193932 32 282 4.8 4.8 0.00 0.00 0.00 15 1011.7
20260508193430 32 279 8.0 12.9 0.00 0.00 0.00 15 1012.0
20260508192926 32 286 8.0 9.7 0.00 0.00 0.00 15 1012.0
20260508192423 32 319 11.3 12.9 0.00 0.00 0.00 15 1011.9
20260508191920 32 284 1.6 3.2 0.00 0.00 0.00 16 1011.9
20260508191417 32 319 8.0 9.7 0.00 0.00 0.00 15 1012.1
20260508190914 32 292 4.8 8.0 0.00 0.00 0.00 15 1012.1
20260508190411 32 314 11.3 12.9 0.00 0.00 0.00 15 1012.4
20260508185907 32 266 6.4 9.7 0.00 0.00 0.00 16 1012.4
20260508185405 31 289 4.8 4.8 0.00 0.00 0.00 16 1012.4
20260508184902 31 244 4.8 8.0 0.00 0.00 0.00 16 1012.4
20260508184359 31 270 4.8 4.8 0.00 0.00 0.00 17 1012.5
20260508183855 31 15 3.2 3.2 0.00 0.00 0.00 17 1012.8
20260508183352 30 46 1.6 1.6 0.00 0.00 0.00 17 1012.6
20260508182848 30 289 4.8 4.8 0.00 0.00 0.00 17 1012.8
20260508182345 30 226 4.8 3.2 0.00 0.00 0.00 17 1012.7
20260508181840 30 12 3.2 4.8 0.00 0.00 0.00 18 1013.0
20260508181337 31 256 6.4 8.0 0.00 0.00 0.00 17 1013.0
20260508180834 31 230 3.2 3.2 0.00 0.00 0.00 17 1013.1
20260508180331 30 37 1.6 3.2 0.00 0.00 0.00 18 1013.2
20260508175827 30 47 3.2 3.2 0.00 0.00 0.00 19 1013.4
20260508175324 30 266 1.6 1.6 0.00 0.00 0.00 19 1013.5
20260508174822 28 111 1.6 1.6 0.00 0.00 0.00 18 1013.4
20260508174319 28 108 1.6 1.6 0.00 0.00 0.00 19 1013.8
20260508173815 28 256 4.8 4.8 0.00 0.00 0.00 20 1013.6
20260508173313 28 161 4.8 4.8 0.00 0.00 0.00 19 1013.9
20260508172808 28 276 3.2 3.2 0.00 0.00 0.00 20 1013.9
20260508172307 28 307 3.2 3.2 0.00 0.00 0.00 20 1013.8
20260508171802 28 253 1.6 1.6 0.00 0.00 0.00 20 1014.0
20260508171258 28 306 3.2 3.2 0.00 0.00 0.00 20 1013.9
20260508170755 27 300 4.8 4.8 0.00 0.00 0.00 21 1013.8
20260508170253 27 241 0.0 1.6 0.00 0.00 0.00 20 1014.0
20260508165750 27 246 4.8 4.8 0.00 0.00 0.00 20 1014.0
20260508165247 28 51 3.2 3.2 0.00 0.00 0.00 20 1014.0
20260508164743 28 265 0.0 0.0 0.00 0.00 0.00 20 1013.9
20260508164240 28 173 1.6 1.6 0.00 0.00 0.00 20 1014.1
20260508163738 28 73 1.6 1.6 0.00 0.00 0.00 20 1014.2
20260508163236 27 11 0.0 0.0 0.00 0.00 0.00 22 1014.2
20260508162731 27 93 0.0 0.0 0.00 0.00 0.00 21 1014.2
20260508162228 26 137 3.2 3.2 0.00 0.00 0.00 22 1014.5
20260508161725 27 229 1.6 3.2 0.00 0.00 0.00 22 1014.2
20260508161222 26 73 1.6 1.6 0.00 0.00 0.00 23 1014.2
20260508160720 26 108 1.6 1.6 0.00 0.00 0.00 23 1014.3
20260508160218 26 130 1.6 1.6 0.00 0.00 0.00 22 1014.3
20260508155714 26 93 1.6 1.6 0.00 0.00 0.00 24 1014.2
20260508155212 25 117 0.0 0.0 0.00 0.00 0.00 23 1014.4
20260508154708 25 130 1.6 3.2 0.00 0.00 0.00 23 1014.3
20260508154206 25 95 1.6 1.6 0.00 0.00 0.00 24 1014.4
20260508153702 25 80 0.0 0.0 0.00 0.00 0.00 25 1014.3
20260508153159 25 76 1.6 1.6 0.00 0.00 0.00 25 1014.3
20260508152656 25 90 1.6 3.2 0.00 0.00 0.00 24 1014.2
20260508152152 25 93 3.2 3.2 0.00 0.00 0.00 25 1014.2
20260508151648 23 106 0.0 0.0 0.00 0.00 0.00 26 1014.3
20260508151145 23 73 0.0 0.0 0.00 0.00 0.00 29 1014.5
20260508150642 23 55 1.6 1.6 0.00 0.00 0.00 29 1014.4
20260508150138 23 118 3.2 3.2 0.00 0.00 0.00 29 1014.4
20260508145634 22 113 1.6 1.6 0.00 0.00 0.00 29 1014.5
20260508145131 22 63 0.0 0.0 0.00 0.00 0.00 32 1014.3
20260508144629 22 94 0.0 1.6 0.00 0.00 0.00 30 1014.5
20260508144126 21 111 1.6 1.6 0.00 0.00 0.00 31 1014.4
20260508143623 21 86 0.0 0.0 0.00 0.00 0.00 33 1014.2
20260508143120 21 93 1.6 1.6 0.00 0.00 0.00 33 1014.4
20260508142617 21 81 1.6 1.6 0.00 0.00 0.00 34 1014.2
20260508142113 20 98 0.0 0.0 0.00 0.00 0.00 34 1014.5
20260508141610 20 104 1.6 1.6 0.00 0.00 0.00 36 1014.2
20260508141108 19 107 1.6 1.6 0.00 0.00 0.00 36 1014.2
20260508140605 19 102 1.6 1.6 0.00 0.00 0.00 37 1014.1
20260508135556 18 94 0.0 0.0 0.00 0.00 0.00 38 1014.2
20260508135053 18 86 1.6 1.6 0.00 0.00 0.00 39 1014.2
20260508134550 17 81 1.6 1.6 0.00 0.00 0.00 40 1014.3
20260508134047 17 105 1.6 1.6 0.00 0.00 0.00 41 1014.3
20260508133543 17 98 1.6 1.6 0.00 0.00 0.00 41 1014.1
20260508133041 16 95 1.6 1.6 0.00 0.00 0.00 44 1014.0
20260508132539 16 84 1.6 1.6 0.00 0.00 0.00 45 1014.1
20260508132035 15 83 1.6 1.6 0.00 0.00 0.00 45 1014.0
20260508131530 15 94 1.6 1.6 0.00 0.00 0.00 46 1013.8
20260508131027 15 81 1.6 1.6 0.00 0.00 0.00 47 1013.9
20260508130525 13 79 0.0 0.0 0.00 0.00 0.00 50 1013.6
20260508130021 13 77 0.0 1.6 0.00 0.00 0.00 52 1013.6
20260508125517 13 77 0.0 0.0 0.00 0.00 0.00 53 1013.6
20260508125015 13 77 0.0 0.0 0.00 0.00 0.00 56 1013.8
20260508124512 13 77 0.0 0.0 0.00 0.00 0.00 57 1013.4
20260508124009 13 77 0.0 0.0 0.00 0.00 0.00 57 1013.4
20260508123508 13 77 0.0 0.0 0.00 0.00 0.00 57 1013.2
20260508123004 13 77 0.0 0.0 0.00 0.00 0.00 57 1013.1
20260508122501 13 77 1.6 1.6 0.00 0.00 0.00 58 1013.3
20260508121958 13 77 0.0 0.0 0.00 0.00 0.00 57 1013.1
20260508121456 13 77 0.0 0.0 0.00 0.00 0.00 56 1013.2
20260508120954 13 77 0.0 0.0 0.00 0.00 0.00 57 1013.0
20260508120451 13 77 0.0 0.0 0.00 0.00 0.00 55 1013.1
20260508115949 13 77 0.0 0.0 0.00 0.00 0.00 54 1013.0
20260508115447 13 77 0.0 0.0 0.00 0.00 0.00 53 1012.9
20260508114943 14 77 0.0 0.0 0.00 0.00 0.00 52 1012.9
20260508114440 14 77 0.0 0.0 0.00 0.00 0.00 51 1013.0
20260508113936 14 76 0.0 0.0 0.00 0.00 0.00 51 1012.9
20260508113434 14 75 0.0 0.0 0.00 0.00 0.00 51 1012.9
20260508112931 14 75 0.0 0.0 0.00 0.00 0.00 51 1012.8
20260508112428 15 75 0.0 0.0 0.00 0.00 0.00 50 1013.0
20260508111925 15 76 0.0 0.0 0.00 0.00 0.00 48 1012.7
20260508111422 15 76 0.0 0.0 0.00 0.00 0.00 48 1012.7
20260508110919 15 75 0.0 0.0 0.00 0.00 0.00 48 1012.6
20260508110417 15 76 0.0 0.0 0.00 0.00 0.00 48 1012.6
20260508105916 15 75 0.0 0.0 0.00 0.00 0.00 48 1012.8
20260508105413 15 75 0.0 0.0 0.00 0.00 0.00 49 1012.8
20260508104910 15 74 0.0 0.0 0.00 0.00 0.00 50 1012.8
20260508104407 15 74 0.0 0.0 0.00 0.00 0.00 50 1012.6
20260508103904 15 74 0.0 0.0 0.00 0.00 0.00 49 1012.6
20260508103401 15 74 0.0 0.0 0.00 0.00 0.00 47 1012.4
20260508102858 15 74 0.0 0.0 0.00 0.00 0.00 46 1012.8
20260508102356 15 74 0.0 0.0 0.00 0.00 0.00 45 1012.6
20260508101853 16 74 0.0 0.0 0.00 0.00 0.00 44 1012.7
20260508101350 16 73 1.6 1.6 0.00 0.00 0.00 44 1012.6
20260508100848 16 73 0.0 0.0 0.00 0.00 0.00 44 1012.8
20260508100347 16 73 0.0 0.0 0.00 0.00 0.00 43 1012.4
20260508095842 16 73 0.0 0.0 0.00 0.00 0.00 43 1012.6
20260508095340 16 72 0.0 0.0 0.00 0.00 0.00 42 1012.5
20260508094836 16 72 0.0 0.0 0.00 0.00 0.00 43 1012.2
20260508094333 16 72 0.0 0.0 0.00 0.00 0.00 43 1012.6
20260508093831 16 72 0.0 0.0 0.00 0.00 0.00 44 1012.5
20260508093328 16 72 0.0 0.0 0.00 0.00 0.00 44 1012.6
20260508092825 16 72 0.0 0.0 0.00 0.00 0.00 43 1012.5
20260508092323 16 72 0.0 0.0 0.00 0.00 0.00 43 1012.6
20260508091821 16 72 0.0 0.0 0.00 0.00 0.00 42 1012.7
20260508091317 17 72 0.0 0.0 0.00 0.00 0.00 41 1012.6
20260508090815 17 71 0.0 0.0 0.00 0.00 0.00 40 1012.4
20260508090314 17 71 0.0 0.0 0.00 0.00 0.00 38 1012.7
20260508085809 17 75 0.0 0.0 0.00 0.00 0.00 38 1012.6
20260508085307 17 75 0.0 0.0 0.00 0.00 0.00 38 1012.8
20260508084802 17 81 1.6 1.6 0.00 0.00 0.00 38 1012.7
20260508084259 17 87 0.0 0.0 0.00 0.00 0.00 38 1012.7
20260508083757 17 91 0.0 0.0 0.00 0.00 0.00 37 1012.6
20260508083254 17 97 1.6 1.6 0.00 0.00 0.00 38 1012.9
20260508082754 17 83 1.6 1.6 0.00 0.00 0.00 38 1012.8
20260508082252 17 83 1.6 1.6 0.00 0.00 0.00 37 1012.9
20260508081749 18 83 0.0 0.0 0.00 0.00 0.00 36 1012.8
20260508081245 18 77 1.6 1.6 0.00 0.00 0.00 35 1012.8
20260508080742 18 82 1.6 1.6 0.00 0.00 0.00 35 1013.0
20260508080241 18 86 0.0 0.0 0.00 0.00 0.00 35 1013.0
20260508075737 18 81 1.6 1.6 0.00 0.00 0.00 35 1013.1
20260508075234 18 108 1.6 3.2 0.00 0.00 0.00 35 1012.7
20260508074731 18 89 1.6 1.6 0.00 0.00 0.00 35 1013.0
20260508074229 18 85 0.0 0.0 0.00 0.00 0.00 35 1013.2
20260508073725 18 85 0.0 0.0 0.00 0.00 0.00 34 1013.4
20260508073224 18 85 0.0 1.6 0.00 0.00 0.00 34 1013.2
20260508072719 18 99 0.0 0.0 0.00 0.00 0.00 34 1012.9
20260508072216 18 99 0.0 0.0 0.00 0.00 0.00 35 1013.3
20260508071714 19 99 0.0 0.0 0.00 0.00 0.00 34 1013.3
20260508071212 19 99 0.0 0.0 0.00 0.00 0.00 34 1013.0
20260508070709 19 99 1.6 1.6 0.00 0.00 0.00 34 1013.3
20260508070208 19 108 0.0 0.0 0.00 0.00 0.00 33 1013.2
20260508065704 18 109 1.6 1.6 0.00 0.00 0.00 34 1013.3
20260508065202 18 90 0.0 0.0 0.00 0.00 0.00 36 1013.2
20260508064700 20 90 0.0 0.0 0.00 0.00 0.00 34 1013.1
20260508064158 20 90 0.0 0.0 0.00 0.00 0.00 33 1013.1
20260508063655 20 93 0.0 1.6 0.00 0.00 0.00 33 1013.3
20260508063153 20 103 1.6 1.6 0.00 0.00 0.00 34 1013.2
20260508062650 19 140 1.6 1.6 0.00 0.00 0.00 34 1013.4
20260508062147 18 187 0.0 0.0 0.00 0.00 0.00 35 1013.5
20260508061644 18 194 4.8 3.2 0.00 0.00 0.00 37 1013.4
20260508061141 18 93 0.0 0.0 0.00 0.00 0.00 36 1013.2
20260508060638 18 92 0.0 0.0 0.00 0.00 0.00 36 1013.4
20260508060135 19 93 0.0 0.0 0.00 0.00 0.00 35 1013.2
20260508055631 19 93 0.0 0.0 0.00 0.00 0.00 33 1013.2
20260508055128 20 93 0.0 0.0 0.00 0.00 0.00 33 1013.3
20260508054624 20 92 0.0 0.0 0.00 0.00 0.00 33 1013.4
20260508054122 20 93 0.0 0.0 0.00 0.00 0.00 32 1013.4
20260508053618 20 93 0.0 0.0 0.00 0.00 0.00 31 1013.2
20260508053116 20 94 0.0 0.0 0.00 0.00 0.00 30 1013.0
20260508052614 20 94 0.0 0.0 0.00 0.00 0.00 30 1013.3
20260508052110 20 94 0.0 0.0 0.00 0.00 0.00 31 1013.5
20260508051606 21 94 0.0 0.0 0.00 0.00 0.00 30 1013.2
20260508051102 21 94 0.0 0.0 0.00 0.00 0.00 30 1013.1
20260508050558 22 95 0.0 0.0 0.00 0.00 0.00 29 1013.2
20260508050056 22 126 0.0 0.0 0.00 0.00 0.00 25 1013.1
20260508045552 22 120 0.0 0.0 0.00 0.00 0.00 25 1013.2
20260508045050 22 118 0.0 0.0 0.00 0.00 0.00 25 1013.2
20260508044547 22 129 0.0 0.0 0.00 0.00 0.00 25 1013.0
20260508044043 22 91 1.6 1.6 0.00 0.00 0.00 26 1012.9
20260508043539 22 103 0.0 0.0 0.00 0.00 0.00 26 1013.1
20260508043037 22 103 1.6 1.6 0.00 0.00 0.00 25 1012.8
20260508042533 22 122 0.0 1.6 0.00 0.00 0.00 26 1012.7
20260508042031 22 95 0.0 0.0 0.00 0.00 0.00 27 1012.6
20260508041527 22 95 0.0 0.0 0.00 0.00 0.00 26 1012.4
20260508041024 23 97 1.6 1.6 0.00 0.00 0.00 26 1012.5
20260508040521 23 105 0.0 0.0 0.00 0.00 0.00 25 1012.5
20260508040018 23 105 0.0 0.0 0.00 0.00 0.00 25 1012.6
20260508035515 23 105 0.0 0.0 0.00 0.00 0.00 25 1012.4
20260508035012 23 105 1.6 1.6 0.00 0.00 0.00 25 1012.1
20260508034509 23 101 3.2 3.2 0.00 0.00 0.00 24 1012.0
20260508034006 23 54 0.0 0.0 0.00 0.00 0.00 23 1011.8
20260508033504 24 45 0.0 0.0 0.00 0.00 0.00 23 1011.8
20260508033001 25 45 0.0 0.0 0.00 0.00 0.00 22 1011.8
20260508032458 25 25 1.6 1.6 0.00 0.00 0.00 21 1011.6
20260508031955 25 294 1.6 1.6 0.00 0.00 0.00 21 1011.5
20260508031453 25 283 0.0 0.0 0.00 0.00 0.00 20 1011.3